• In Russia
  • List of Countries
  • For 7 days
  • Water Temperature
  • Satellite Maps
  • Weather Map
  • Weather Widgets
  • user-avatar
    Login

    Hourly Weather Wiktoria

    Today, 5 December, Monday

    Time Temperature Precipitation Wind Pressure Humidity
    00:00 +21°C° 0.1 mm 1 mps 743 mmHg 93%
    01:00 +21°C° 0.1 mm 1 mps 743 mmHg 93%
    02:00 +21°C° 0 mm 1 mps 743 mmHg 92%
    03:00 +20°C° 0 mm 1 mps 743 mmHg 92%
    04:00 +20°C° 0 mm 1 mps 743 mmHg 93%
    05:00 +21°C° 0.1 mm 1 mps 743 mmHg 89%
    06:00 +22°C° 0.1 mm 1 mps 744 mmHg 86%
    07:00 +23°C° 0.1 mm 1 mps 744 mmHg 82%
    08:00 +25°C° 0 mm 1 mps 745 mmHg 72%
    09:00 +28°C° 0 mm 1 mps 745 mmHg 62%
    10:00 +28°C° 0 mm 2 mps 746 mmHg 58%
    11:00 +29°C° 0 mm 2 mps 745 mmHg 53%
    12:00 +30°C° 0 mm 2 mps 745 mmHg 48%
    13:00 +31°C° 0 mm 2 mps 745 mmHg 43%
    14:00 +31°C° 0 mm 2 mps 745 mmHg 39%
    15:00 +32°C° 0 mm 2 mps 745 mmHg 34%
    16:00 +29°C° 0 mm 2 mps 745 mmHg 41%
    17:00 +27°C° 0 mm 2 mps 746 mmHg 44%
    18:00 +25°C° 0 mm 2 mps 746 mmHg 47%
    19:00 +24°C° 0 mm 1 mps 746 mmHg 50%
    20:00 +22°C° 0 mm 1 mps 746 mmHg 52%
    21:00 +21°C° 0 mm 1 mps 746 mmHg 54%
    22:00 +19°C° 0 mm 1 mps 747 mmHg 49%
    23:00 +19°C° 0 mm 1 mps 746 mmHg 53%

    Tomorrow, 6 December, Tuesday

    Time Temperature Precipitation Wind Pressure Humidity
    00:00 +18°C° 0 mm 1 mps 746 mmHg 57%
    01:00 +16°C° 0 mm 1 mps 746 mmHg 60%
    02:00 +16°C° 0 mm 1 mps 746 mmHg 64%
    03:00 +15°C° 0 mm 1 mps 746 mmHg 68%
    04:00 +15°C° 0 mm 1 mps 746 mmHg 72%
    05:00 +15°C° 0 mm 1 mps 747 mmHg 70%
    06:00 +15°C° 0 mm 1 mps 747 mmHg 69%
    07:00 +16°C° 0 mm 1 mps 748 mmHg 67%
    08:00 +19°C° 0 mm 1 mps 748 mmHg 57%
    09:00 +22°C° 0 mm 1 mps 748 mmHg 47%
    10:00 +24°C° 0 mm 1 mps 748 mmHg 37%
    11:00 +25°C° 0 mm 1 mps 747 mmHg 33%
    12:00 +27°C° 0 mm 1 mps 747 mmHg 29%
    13:00 +28°C° 0 mm 2 mps 746 mmHg 25%
    14:00 +29°C° 0 mm 2 mps 746 mmHg 23%
    15:00 +29°C° 0 mm 2 mps 746 mmHg 22%
    16:00 +30°C° 0 mm 2 mps 745 mmHg 21%
    17:00 +28°C° 0 mm 2 mps 746 mmHg 28%
    18:00 +25°C° 0 mm 1 mps 746 mmHg 35%
    19:00 +23°C° 0 mm 1 mps 746 mmHg 42%
    20:00 +20°C° 0 mm 2 mps 747 mmHg 48%
    21:00 +19°C° 0 mm 2 mps 748 mmHg 54%
    22:00 +17°C° 0 mm 2 mps 748 mmHg 60%
    23:00 +16°C° 0 mm 2 mps 748 mmHg 65%

    Day after tomorrow, 7 December, Wednesday

    Time Temperature Precipitation Wind Pressure Humidity
    00:00 +15°C° 0 mm 2 mps 748 mmHg 70%
    01:00 +13°C° 0 mm 1 mps 748 mmHg 75%
    02:00 +13°C° 0 mm 1 mps 748 mmHg 77%
    03:00 +12°C° 0 mm 1 mps 748 mmHg 80%
    04:00 +12°C° 0 mm 1 mps 748 mmHg 82%
    05:00 +13°C° 0 mm 1 mps 748 mmHg 75%
    06:00 +15°C° 0 mm 1 mps 748 mmHg 67%
    07:00 +18°C° 0 mm 1 mps 749 mmHg 60%
    08:00 +21°C° 0 mm 1 mps 749 mmHg 48%
    09:00 +24°C° 0 mm 1 mps 749 mmHg 36%
    10:00 +28°C° 0 mm 1 mps 749 mmHg 25%
    11:00 +29°C° 0 mm 1 mps 748 mmHg 22%
    12:00 +30°C° 0 mm 2 mps 747 mmHg 19%
    13:00 +31°C° 0 mm 2 mps 747 mmHg 16%
    14:00 +31°C° 0 mm 2 mps 746 mmHg 16%
    15:00 +32°C° 0 mm 2 mps 745 mmHg 16%
    16:00 +32°C° 0 mm 2 mps 745 mmHg 16%
    17:00 +29°C° 0 mm 1 mps 744 mmHg 27%
    18:00 +26°C° 0 mm 1 mps 744 mmHg 38%
    19:00 +20°C° 0 mm 0 mps 744 mmHg 48%
    20:00 +22°C° 0 mm 1 mps 744 mmHg 44%
    21:00 +21°C° 0 mm 1 mps 744 mmHg 40%
    22:00 +21°C° 0 mm 1 mps 744 mmHg 36%
    23:00 +21°C° 0 mm 1 mps 743 mmHg 37%

    8 December, Thursday

    Time Temperature Precipitation Wind Pressure Humidity
    00:00 +21°C° 0 mm 1 mps 743 mmHg 38%
    01:00 +20°C° 0 mm 1 mps 742 mmHg 38%
    02:00 +20°C° 0 mm 1 mps 741 mmHg 39%
    03:00 +20°C° 0 mm 1 mps 741 mmHg 40%
    04:00 +19°C° 0 mm 2 mps 740 mmHg 41%
    05:00 +21°C° 0 mm 2 mps 740 mmHg 40%
    06:00 +24°C° 0 mm 2 mps 739 mmHg 38%
    07:00 +25°C° 0 mm 3 mps 739 mmHg 36%
    08:00 +26°C° 0.4 mm 3 mps 739 mmHg 40%
    09:00 +26°C° 0.4 mm 3 mps 739 mmHg 45%
    10:00 +26°C° 0.4 mm 3 mps 738 mmHg 49%
    11:00 +25°C° 2.2 mm 3 mps 738 mmHg 62%
    12:00 +24°C° 2.2 mm 3 mps 738 mmHg 74%
    13:00 +21°C° 2.2 mm 2 mps 737 mmHg 86%
    14:00 +20°C° 2.6 mm 2 mps 738 mmHg 88%
    15:00 +19°C° 2.6 mm 2 mps 738 mmHg 89%
    16:00 +19°C° 2.6 mm 2 mps 738 mmHg 91%
    17:00 +18°C° 0.3 mm 2 mps 739 mmHg 90%
    18:00 +17°C° 0.3 mm 2 mps 739 mmHg 89%
    19:00 +16°C° 0.3 mm 2 mps 740 mmHg 87%
    20:00 +15°C° 0.2 mm 2 mps 741 mmHg 87%
    21:00 +14°C° 0.2 mm 2 mps 742 mmHg 88%
    22:00 +12°C° 0.2 mm 3 mps 743 mmHg 88%
    23:00 +12°C° 0 mm 3 mps 743 mmHg 86%

    9 December, Friday

    Time Temperature Precipitation Wind Pressure Humidity
    00:00 +12°C° 0 mm 3 mps 744 mmHg 83%
    01:00 +12°C° 0 mm 2 mps 745 mmHg 81%
    02:00 +12°C° 0 mm 2 mps 745 mmHg 81%
    03:00 +10°C° 0 mm 2 mps 746 mmHg 80%
    04:00 +10°C° 0 mm 2 mps 746 mmHg 79%
    05:00 +10°C° 0 mm 2 mps 747 mmHg 76%
    06:00 +11°C° 0 mm 3 mps 748 mmHg 72%
    07:00 +11°C° 0 mm 3 mps 748 mmHg 69%
    08:00 +12°C° 0.1 mm 3 mps 749 mmHg 65%
    09:00 +12°C° 0.1 mm 3 mps 750 mmHg 62%
    10:00 +12°C° 0.1 mm 3 mps 750 mmHg 58%
    11:00 +13°C° 0 mm 3 mps 751 mmHg 55%
    12:00 +14°C° 0 mm 3 mps 751 mmHg 52%
    13:00 +14°C° 0 mm 3 mps 751 mmHg 50%
    14:00 +16°C° 0 mm 3 mps 751 mmHg 48%
    15:00 +16°C° 0 mm 3 mps 751 mmHg 47%
    16:00 +16°C° 0 mm 3 mps 751 mmHg 46%
    17:00 +16°C° 0 mm 2 mps 752 mmHg 50%
    18:00 +15°C° 0 mm 2 mps 752 mmHg 54%
    19:00 +14°C° 0 mm 2 mps 753 mmHg 58%
    20:00 +12°C° 0 mm 1 mps 753 mmHg 64%
    21:00 +11°C° 0 mm 1 mps 754 mmHg 71%
    22:00 +10°C° 0 mm 1 mps 755 mmHg 77%
    23:00 +9°C° 0 mm 1 mps 755 mmHg 80%

    10 December, Saturday

    Time Temperature Precipitation Wind Pressure Humidity
    00:00 +9°C° 0 mm 1 mps 755 mmHg 82%
    01:00 +8°C° 0 mm 1 mps 755 mmHg 85%
    02:00 +8°C° 0 mm 1 mps 755 mmHg 87%
    03:00 +7°C° 0 mm 1 mps 755 mmHg 88%
    04:00 +7°C° 0 mm 1 mps 755 mmHg 90%
    05:00 +8°C° 0 mm 1 mps 755 mmHg 84%
    06:00 +10°C° 0 mm 1 mps 756 mmHg 77%
    07:00 +11°C° 0 mm 1 mps 756 mmHg 71%
    08:00 +14°C° 0 mm 1 mps 756 mmHg 62%
    09:00 +16°C° 0 mm 1 mps 756 mmHg 53%
    10:00 +19°C° 0 mm 1 mps 756 mmHg 44%
    11:00 +21°C° 0 mm 1 mps 755 mmHg 40%
    12:00 +22°C° 0 mm 1 mps 755 mmHg 36%
    13:00 +24°C° 0 mm 1 mps 754 mmHg 32%
    14:00 +24°C° 0 mm 2 mps 754 mmHg 32%
    15:00 +24°C° 0 mm 2 mps 753 mmHg 33%
    16:00 +24°C° 0 mm 2 mps 753 mmHg 33%
    17:00 +23°C° 0 mm 2 mps 753 mmHg 40%
    18:00 +20°C° 0 mm 2 mps 753 mmHg 46%
    19:00 +20°C° 0 mm 1 mps 754 mmHg 52%
    20:00 +18°C° 0 mm 1 mps 754 mmHg 58%
    21:00 +16°C° 0 mm 2 mps 754 mmHg 63%
    22:00 +14°C° 0 mm 2 mps 755 mmHg 68%
    23:00 +14°C° 0 mm 2 mps 755 mmHg 72%
    Show more